FENGYUN 1C DEB

Satellite information

Favourite Embed

Satellite Type and Status

DEBRISIN ORBIT

Key statistics

Satellite FENGYUN 1C DEB at a glance.

Uptime

9495

Days in orbit

Revolutions

≈ 13.6

Per day

Orbit

SSO

Sun Synchronous Orbit

Inclination

99.3

Latest

Satellite identification and parameters

Extended collection of information and parameters for FENGYUN 1C DEB.

Object identification

Identified? True

Debris? True

Object name: FENGYUN 1C DEB

International designator: 1999-025CBM

Object number (NORAD): 31655

Object ID (CCSDS): 31655

Country: PEOPLES REPUBLIC OF CHINA (PRC)

Current information (Y/N): Y

RCS size: SMALL

Orbital parameters

Period: 105.723 minutes

Inclination: 99.2898 deg

SMA: 7406.38 km

Apoapsis: 1250.665 km

Periapsis: 805.824 km

RAAN: 82.4497 deg

Eccentricy: 0.030031

Argument of periapsis: 346.1661 deg

Mean anomaly: 197.0245 deg

Mean motion: 13.62052409 rev/day

Mean motion (dot): 0.00004799 rev/day2

B* drag term: 0.0046409 1/REarth

Two-line elements (TLE)

Creation date: May 7, 2025, 3:14 a.m.

Reference frame: TEME

Reference center: EARTH

Epoch: May 6, 2025, 3:36 p.m. UTC

TLE line 0: 0 FENGYUN 1C DEB

TLE line 1: 1 31655U 99025CBM 25126.65053843 .00004799 00000-0 46409-2 0 9999

TLE line 2: 2 31655 99.2898 82.4497 0300310 346.1661 197.0245 13.62052409567216

Live tracking on map

Real-time ground track for satellite FENGYUN 1C DEB.

In-orbit conjunctions

A list of the most updated potential collisions computed for object FENGYUN 1C DEB.

Target Orbit TCA Probability of collision Miss distance Type
OBJECT B LEO 2025-03-02 04:30:29 0.0001185049 249.0 (m) UNKNOWN
SL-16 DEB LEO 2024-11-12 14:59:25 0.000119455 498.0 (m) DEBRIS

Associated space launch

Chinese polar orbiting meteorological satellite

FENGYUN 1C DEB was lifted into orbit during the mission ‘Long March 4B | Feng Yun 1C’, on board a Long March 4B space rocket.

The launch took place on May 10, 1999, 1:33 a.m. from Launch Complex 7.

For more information about the launch, click the button.

Launch to space Long March 4B | Feng Yun 1C
Long March 4B | Feng Yun 1C

Agency: N/A

Status: Launch Successful

Launch date: May 10, 1999, 1:33 a.m. UTC

Rocket: Long March 4B

Launch pad: Launch Complex 7

Location: Taiyuan Satellite Launch Center, People's Republic of China

...

Latest news about this satellite

There are no fresh news available about this satellite. Check back as we update our databases every day.


Newsletter sign-up

Weekly statistics, charts and insights to help you stay on top of the space industry.